Location: ??
(36.7391°N, 127.5151°E)
Time: 09:16:21
(UTC+00:00)

BREEZE-M DEB - Pass Details

Date: 07 June 2020
Orbit: 294 x 16007 km, 49.5° (Epoch: 03 July)

Event Time Altitude Azimuth Distance (km) Brightness Sun altitude
Rises 11:27:50 0° 233° (SW) 2,214 6.1 -7.7°
Reaches altitude 10° 11:29:47 10° 234° (SW) 1,173 4.8 -8.0°
Maximum altitude 11:31:52 86° 321° (NW) 306 1.6 -8.4°
Drops below altitude 10° 11:34:28 10° 52° (NE) 1,460 4.8 -8.8°
Sets 11:37:14 0° 53° (NE) 2,923 6.4 -9.2°
